This demonstration page uses our WeatherBlox Daily Observations layout. Learn more.

36.19886, -115.1175

Hourly Observations for May 6, 2018

Temp ( °F °C ) Dew Point ( °F °C ) Humidity (%) Winds ( mph kmh ) Pressure ( in mb ) Visibility ( mi km ) Precip ( " mm )
12:53 am 00:53 Clear 75 23.9 33 0.6 22 22 Calm 29.91 1013 10 16.09344 0 0
1:53 am 01:53 Clear 73 22.8 35 1.7 25 25 NW 5 7 29.91 1013 10 16.09344 0 0
2:53 am 02:53 Clear 71 21.7 36 2.2 28 28 NW 6 9 29.91 1013 10 16.09344 0 0
3:53 am 03:53 Clear 70 21.1 36 2.2 29 29 Calm 29.91 1013 10 16.09344 0 0
4:53 am 04:53 Clear 70 21.1 35 1.7 28 28 N 3 6 29.91 1013 10 16.09344 0 0
5:53 am 05:53 Sunny 68 20 35 1.7 30 30 NW 7 11 29.91 1013 10 16.09344 0 0
6:53 am 06:53 Sunny 70 21.1 34 1.1 27 27 WNW 3 6 29.94 1014 10 16.09344 0 0
7:53 am 07:53 Sunny 74 23.3 35 1.7 24 24 NNW 5 7 29.97 1015 10 16.09344 0 0
8:53 am 08:53 Sunny 78 25.6 28 -2.2 16 16 N 3 6 29.97 1015 10 16.09344 0 0
9:53 am 09:53 Sunny 82 27.8 23 -5 11 11 SE 8 13 29.97 1015 10 16.09344 0 0
10:53 am 10:53 Sunny 85 29.4 22 -5.6 10 10 E 6 9 29.97 1015 10 16.09344 0 0
11:53 am 11:53 Sunny 87 30.6 23 -5 9 9 ESE 5 7 29.97 1015 10 16.09344 0 0
12:53 pm 12:53 Sunny 88 31.1 21 -6.1 8 8 SE 8 13 29.94 1014 10 16.09344 0 0
1:53 pm 13:53 Sunny 92 33.3 18 -7.8 6 6 N 5 7 29.91 1013 10 16.09344 0 0
2:53 pm 14:53 Sunny 94 34.4 17 -8.3 6 6 SE 9 15 29.88 1012 10 16.09344 0 0
3:53 pm 15:53 Sunny 97 36.1 11 -11.7 4 4 SSW 15 24 29.85 1011 10 16.09344 0 0
4:53 pm 16:53 Sunny 96 35.6 10 -12.2 4 4 SW 13 20 29.83 1010 10 16.09344 0 0
5:53 pm 17:53 Sunny 95 35 12 -11.1 5 5 SW 12 19 29.83 1010 10 16.09344 0 0
6:53 pm 18:53 Sunny 92 33.3 15 -9.4 6 6 W 15 24 29.85 1011 10 16.09344 0 0
7:53 pm 19:53 Clear 90 32.2 16 -8.9 6 6 W 7 11 29.85 1011 10 16.09344 0 0
8:53 pm 20:53 Clear 88 31.1 18 -7.8 7 7 WSW 3 6 29.88 1012 10 16.09344 0 0
9:53 pm 21:53 Clear 84 28.9 20 -6.7 9 9 SSE 3 6 29.88 1012 10 16.09344 0 0
10:53 pm 22:53 Clear 81 27.2 24 -4.4 12 12 Calm 29.88 1012 10 16.09344 0 0
11:53 pm 23:53 Clear 83 28.3 24 -4.4 11 11 WSW 3 6 29.88 1012 10 16.09344 0 0

Powered by AerisWeather